ATHENA-FIDUS

Last updated on Sat Aug 15 2026 00:02:59 GMT+0000 (Coordinated Universal Time)

1 39509U 14006B 26226.57542277 .00000139 00000+0 00000+0 0 9995 2 39509 0.0233 113.2482 0001412 42.8868 51.7968 1.00273018 45671
UTC large
Height (km)
Speed (km/s)
/
Latitude / Longitude
Inclination (degrees)
Orbital Period (minutes)
Azimuth
Elevation
Range (km)
Doppler Factor

Next 0 passes for location: London (51.5072 / 0.1276)

No passes found over London.
ATHENA-FIDUS